W0GEN-13 Weather Reports


Display with metric or nautical units.
time (UTC)temp
F
wind
direction
speed
MPH
gust
MPH
rain 1hr
in
rain 24hr
in
rain mn
in
humidity
%
barometer
mb
20260502214514 63 289 7.0 18.0 0.00 0.00 0.00 31 1015.6
20260502214014 62 228 14.0 17.0 0.00 0.00 0.00 30 1015.6
20260502212514 63 217 9.0 16.0 0.00 0.00 0.00 32 1015.8
20260502212014 63 230 13.0 16.0 0.00 0.00 0.00 30 1015.9
20260502211514 63 238 8.0 14.0 0.00 0.00 0.00 31 1015.9
20260502211014 63 221 7.0 18.0 0.00 0.00 0.00 32 1015.9
20260502210514 63 225 11.0 18.0 0.00 0.00 0.00 29 1016.0
20260502205514 63 212 11.0 18.0 0.00 0.00 0.00 30 1016.2
20260502205014 63 210 12.0 12.0 0.00 0.00 0.00 31 1016.2
20260502203514 63 244 14.0 16.0 0.00 0.00 0.00 32 1016.4
20260502203014 63 282 9.0 16.0 0.00 0.00 0.00 31 1016.6
20260502202014 62 242 11.0 15.0 0.00 0.00 0.00 29 1016.6
20260502201014 62 254 9.0 11.0 0.00 0.00 0.00 30 1016.7
20260502200514 62 241 7.0 13.0 0.00 0.00 0.00 31 1016.9
20260502200014 62 238 7.0 18.0 0.00 0.00 0.00 30 1016.9
20260502195513 62 275 6.0 18.0 0.00 0.00 0.00 29 1017.0
20260502195013 62 221 14.0 14.0 0.00 0.00 0.00 28 1017.0
20260502194014 62 235 5.0 14.0 0.00 0.00 0.00 29 1017.3
20260502193514 62 239 8.0 15.0 0.00 0.00 0.00 29 1017.4
20260502193013 62 259 13.0 16.0 0.00 0.00 0.00 29 1017.4
20260502192513 62 207 13.0 16.0 0.00 0.00 0.00 32 1017.4
20260502192013 61 285 6.0 14.0 0.00 0.00 0.00 29 1017.5
20260502191513 62 265 7.0 14.0 0.00 0.00 0.00 31 1017.6
20260502191013 62 273 9.0 14.0 0.00 0.00 0.00 30 1017.6
20260502190513 62 255 7.0 12.0 0.00 0.00 0.00 30 1017.7
20260502190014 61 248 4.0 15.0 0.00 0.00 0.00 29 1017.7
20260502185513 61 246 5.0 15.0 0.00 0.00 0.00 30 1017.8
20260502185013 61 261 6.0 9.0 0.00 0.00 0.00 31 1017.8
20260502184013 60 227 9.0 16.0 0.00 0.00 0.00 32 1018.1
20260502182513 60 281 6.0 13.0 0.00 0.00 0.00 32 1018.2
20260502182014 60 214 6.0 13.0 0.00 0.00 0.00 31 1018.2
20260502181513 61 211 7.0 12.0 0.00 0.00 0.00 32 1018.3
20260502181013 60 202 4.0 9.0 0.00 0.00 0.00 35 1018.3
20260502180513 60 253 7.0 10.0 0.00 0.00 0.00 31 1018.4
20260502170513 58 300 2.0 12.0 0.00 0.00 0.00 34 1019.0
20260502164014 58 280 6.0 13.0 0.00 0.00 0.00 33 1019.2
20260502163013 58 360 2.0 7.0 0.00 0.00 0.00 33 1019.3
20260502162013 57 327 5.0 9.0 0.00 0.00 0.00 37 1019.3
20260502161513 57 270 3.0 9.0 0.00 0.00 0.00 35 1019.4
20260502161013 57 254 9.0 11.0 0.00 0.00 0.00 34 1019.5
20260502160513 57 273 3.0 11.0 0.00 0.00 0.00 35 1019.5
20260502152013 54 304 7.0 10.0 0.00 0.00 0.00 43 1019.8
20260502151513 54 237 6.0 12.0 0.00 0.00 0.00 45 1019.8
20260502151013 53 233 6.0 12.0 0.00 0.00 0.00 45 1019.8
20260502130513 39 269 0.0 0.0 0.00 0.00 0.00 84 1019.9
20260502123513 34 269 0.0 1.0 0.00 0.00 0.00 86 1019.7
20260502123013 33 269 0.0 0.0 0.00 0.00 0.00 85 1019.7
20260502122513 33 269 0.0 0.0 0.00 0.00 0.00 85 1019.7
20260502121513 32 269 0.0 0.0 0.00 0.00 0.00 85 1019.6
20260502120513 32 269 0.0 0.0 0.00 0.00 0.00 85 1019.4
20260502115013 31 269 0.0 0.0 0.00 0.00 0.00 84 1019.5
20260502114513 31 269 0.0 0.0 0.00 0.00 0.00 84 1019.4
20260502114013 31 269 0.0 0.0 0.00 0.00 0.00 84 1019.3
20260502113513 31 269 0.0 1.0 0.00 0.00 0.00 84 1019.3
20260502112513 31 268 0.0 2.0 0.00 0.00 0.00 84 1019.2
20260502112013 31 269 1.0 3.0 0.00 0.00 0.00 84 1019.2
20260502111513 31 269 2.0 3.0 0.00 0.00 0.00 84 1019.2
20260502111013 31 269 2.0 3.0 0.00 0.00 0.00 83 1019.2
20260502110513 31 269 1.0 3.0 0.00 0.00 0.00 83 1019.2
20260502105513 31 281 1.0 4.0 0.00 0.00 0.00 83 1019.1
20260502104513 31 282 2.0 4.0 0.00 0.00 0.00 83 1019.1
20260502104013 32 281 4.0 4.0 0.00 0.00 0.00 82 1019.0
20260502103513 32 33 0.0 0.0 0.00 0.00 0.00 83 1019.0
20260502103013 32 33 0.0 0.0 0.00 0.00 0.00 82 1019.0
20260502102512 32 33 0.0 2.0 0.00 0.00 0.00 82 1019.0
20260502102013 32 33 0.0 2.0 0.00 0.00 0.00 82 1019.0
20260502101512 32 33 2.0 2.0 0.00 0.00 0.00 82 1018.9
20260502101013 32 33 0.0 3.0 0.00 0.00 0.00 82 1019.0
20260502100513 32 33 2.0 3.0 0.00 0.00 0.00 82 1019.0
20260502091513 33 33 0.0 0.0 0.00 0.00 0.00 80 1018.9
20260502091013 33 33 0.0 0.0 0.00 0.00 0.00 80 1018.9
20260502090513 33 33 0.0 0.0 0.00 0.00 0.00 80 1018.8
20260502071512 36 33 2.0 3.0 0.00 0.00 0.00 73 1018.7
20260502071012 36 33 2.0 3.0 0.00 0.00 0.00 73 1018.8
20260502070513 37 33 2.0 3.0 0.00 0.00 0.00 73 1018.8
20260502065512 37 33 1.0 2.0 0.00 0.00 0.00 72 1018.8
20260502065013 37 33 2.0 2.0 0.00 0.00 0.00 72 1018.8
20260502064512 37 33 2.0 2.0 0.00 0.00 0.00 72 1018.8
20260502064012 37 33 1.0 2.0 0.00 0.00 0.00 72 1018.9
20260502063012 37 33 1.0 3.0 0.00 0.00 0.00 72 1018.8
20260502062512 37 33 1.0 3.0 0.00 0.00 0.00 72 1018.8
20260502062013 38 33 2.0 3.0 0.00 0.00 0.00 72 1019.0
20260502061513 38 33 2.0 3.0 0.00 0.00 0.00 72 1019.0
20260502061013 38 33 2.0 3.0 0.00 0.00 0.00 72 1018.9
20260502060512 38 33 2.0 3.0 0.00 0.00 0.00 71 1019.0
20260502060012 38 33 1.0 3.0 0.00 0.00 0.00 72 1018.9
20260502055512 39 33 2.0 3.0 0.00 0.00 0.00 71 1018.9
20260502055012 39 33 1.0 3.0 0.00 0.00 0.00 71 1018.9
20260502054012 39 34 3.0 3.0 0.00 0.00 0.00 71 1018.9
20260502053512 39 34 2.0 4.0 0.00 0.00 0.00 71 1018.8
20260502053012 39 34 2.0 4.0 0.00 0.00 0.00 71 1018.8
20260502052512 39 34 3.0 3.0 0.00 0.00 0.00 71 1018.8
20260502052013 39 34 1.0 4.0 0.00 0.00 0.00 71 1018.8
20260502051512 40 34 1.0 4.0 0.00 0.00 0.00 71 1018.9
20260502051012 40 34 2.0 4.0 0.00 0.00 0.00 70 1018.8
20260502050512 40 23 1.0 4.0 0.00 0.00 0.00 70 1018.8
20260502050012 40 12 3.0 4.0 0.00 0.00 0.00 70 1018.8
20260502045512 40 11 1.0 3.0 0.00 0.00 0.00 69 1018.8
20260502045012 40 360 2.0 3.0 0.00 0.00 0.00 69 1018.7
20260502044512 41 360 1.0 3.0 0.00 0.00 0.00 69 1018.6
20260502044012 41 350 1.0 4.0 0.00 0.00 0.00 68 1018.6
20260502043512 41 350 2.0 4.0 0.00 0.00 0.00 68 1018.6
20260502043012 41 348 1.0 4.0 0.00 0.00 0.00 68 1018.7
20260502042512 41 15 2.0 4.0 0.00 0.00 0.00 68 1018.6
20260502042013 42 15 3.0 4.0 0.00 0.00 0.00 67 1018.6
20260502041512 42 355 3.0 4.0 0.00 0.00 0.00 67 1018.5
20260502040512 42 355 3.0 4.0 0.00 0.00 0.00 66 1018.5
20260502040042 42 5 2.0 4.0 0.00 0.00 0.00 66 1018.4
20260502035512 43 355 3.0 4.0 0.00 0.00 0.00 65 1018.5
20260502035012 43 338 3.0 4.0 0.00 0.00 0.00 65 1018.4
20260502034512 43 331 2.0 4.0 0.00 0.00 0.00 64 1018.4
20260502033512 44 335 2.0 5.0 0.00 0.00 0.00 63 1018.3
20260502032012 44 325 3.0 4.0 0.00 0.00 0.00 63 1018.2
20260502031512 45 346 2.0 4.0 0.00 0.00 0.00 63 1018.2
20260502031012 45 337 2.0 4.0 0.00 0.00 0.00 63 1018.2
20260502030512 45 335 1.0 4.0 0.00 0.00 0.00 62 1018.2
20260502025512 46 346 3.0 5.0 0.00 0.00 0.00 62 1018.0
20260502024512 46 355 3.0 5.0 0.00 0.00 0.00 60 1017.9
20260502024012 47 355 3.0 5.0 0.00 0.00 0.00 58 1017.8
20260502023012 47 342 1.0 6.0 0.00 0.00 0.00 53 1017.6
20260502022512 48 338 1.0 5.0 0.00 0.00 0.00 51 1017.7
20260502022012 48 18 4.0 5.0 0.00 0.00 0.00 51 1017.7
20260502021512 49 350 3.0 6.0 0.00 0.00 0.00 50 1017.6
20260502021012 49 338 2.0 6.0 0.00 0.00 0.00 49 1017.5
20260502020512 49 5 4.0 5.0 0.00 0.00 0.00 48 1017.5
20260502020042 50 5 2.0 5.0 0.00 0.00 0.00 48 1017.5
20260502015512 50 15 2.0 8.0 0.00 0.00 0.00 46 1017.3
20260502015012 50 26 3.0 8.0 0.00 0.00 0.00 46 1017.2
20260502014512 50 5 5.0 7.0 0.00 0.00 0.00 45 1017.1
20260502014012 51 9 4.0 9.0 0.00 0.00 0.00 44 1017.0
20260502013512 51 11 5.0 9.0 0.00 0.00 0.00 44 1017.0
20260502013012 51 360 5.0 7.0 0.00 0.00 0.00 44 1016.9
20260502012012 52 5 4.0 9.0 0.00 0.00 0.00 43 1016.9
20260502011512 52 15 3.0 8.0 0.00 0.00 0.00 42 1016.8
20260502010512 53 313 6.0 9.0 0.00 0.00 0.00 42 1016.7
20260502010012 53 355 2.0 9.0 0.00 0.00 0.00 41 1016.7
20260502005012 54 13 4.0 8.0 0.00 0.00 0.00 40 1016.5
20260502004512 54 316 3.0 8.0 0.00 0.00 0.00 40 1016.5
20260502004012 54 342 3.0 8.0 0.00 0.00 0.00 39 1016.4
20260502003512 54 321 3.0 8.0 0.00 0.00 0.00 39 1016.5
20260502003012 54 338 2.0 11.0 0.00 0.00 0.00 41 1016.4
20260502001512 55 316 1.0 11.0 0.00 0.00 0.00 41 1016.3
20260502001012 55 5 5.0 13.0 0.00 0.00 0.00 39 1016.2
20260502000512 55 334 6.0 13.0 0.00 0.00 0.00 40 1016.2
20260502000012 55 321 7.0 10.0 0.00 0.00 0.00 40 1016.2
20260501235512 55 336 6.0 10.0 0.00 0.00 0.00 39 1016.1
20260501235012 56 321 2.0 12.0 0.00 0.00 0.00 38 1016.1
20260501234512 57 311 7.0 12.0 0.00 0.00 0.00 39 1016.1
20260501234012 57 340 4.0 12.0 0.00 0.00 0.00 38 1016.0
20260501233512 57 351 11.0 12.0 0.00 0.00 0.00 38 1016.0
20260501233012 56 316 8.0 14.0 0.00 0.00 0.00 38 1016.1
20260501232512 56 338 10.0 14.0 0.00 0.00 0.00 40 1016.0
20260501230512 57 306 4.0 12.0 0.00 0.00 0.00 41 1016.1
20260501230012 57 360 4.0 12.0 0.00 0.00 0.00 40 1016.0
20260501225512 57 320 8.0 12.0 0.00 0.00 0.00 39 1016.0
20260501225012 57 299 12.0 12.0 0.00 0.00 0.00 39 1016.1
20260501224512 57 311 6.0 10.0 0.00 0.00 0.00 40 1016.0
20260501224012 57 245 4.0 9.0 0.00 0.00 0.00 40 1015.9
20260501223512 56 57 3.0 9.0 0.00 0.00 0.00 40 1016.0
20260501223012 56 47 3.0 9.0 0.00 0.00 0.00 39 1016.0
20260501222512 56 35 5.0 9.0 0.00 0.00 0.00 41 1016.0
20260501222011 56 11 1.0 10.0 0.00 0.00 0.00 43 1015.9
20260501221512 56 348 4.0 10.0 0.00 0.00 0.00 43 1016.0
20260501220512 56 319 1.0 9.0 0.00 0.00 0.00 43 1016.0
20260501220012 56 306 5.0 9.0 0.00 0.00 0.00 43 1016.0
20260501215512 56 331 6.0 7.0 0.00 0.00 0.00 43 1016.0